Regional Weather Roundup
Issued by NWS Charleston, SC

Current Version | Previous Version | Text Only | Print | Product List | Glossary Off
Versions: 1 2 3 4 5 6 7 8 9 10 11 12 13 14 15 16 17 18 19 20 21 22 23 24 25 26 27 28 29 30 31 32 33 34 35 36 37 38 39 40 41 42 43 44 45 46 47 48 49 50
000 ASUS42 KCHS 232312 RWRCHS REGIONAL WEATHER ROUNDUP NATIONAL WEATHER SERVICE CHARLESTON SC 700 PM EDT THU MAR 23 2017 NOTE: "FAIR" INDICATES FEW OR NO CLOUDS BELOW 12,000 FEET WITH NO SIGNIFICANT WEATHER AND/OR OBSTRUCTIONS TO VISIBILITY. NOT ALL STATIONS ARE QUALITY CONTROLLED. USE DATA WITH CAUTION... ESPECIALLY DEWPOINT OBSERVATIONS. SCZ027-030-031-034>040-042>050-240000- ...SOUTHEAST SOUTH CAROLINA... CITY SKY/WX TMP DP RH WIND PRES REMARKS N CHARLESTON CLEAR 56 41 57 E14 30.49R WATERFRONT PRK N/A 56 47 71 E21 30.48S JOHNS ISLAND FAIR 55 45 67 NE16G22 30.49R PINOPOLIS N/A 59 36 41 E7 30.39R MONCKS CORNER FAIR 57 28 33 E6 30.49R SUMMERVILLE FAIR 61 32 33 E5 30.48S BEAUFORT MCAS CLEAR 60 48 64 E15 30.46R BEAUFORT ARPT FAIR 55 45 67 E12G22 30.46R HILTON HEAD IS CLEAR 57 48 72 NE9G17 30.47S WALTERBORO CLEAR 61 34 36 E9 30.47R ALLENDALE FAIR 64 36 34 CALM 30.42S ...SOUTHERN MIDLANDS AND PEE DEE... CITY SKY/WX TMP DP RH WIND PRES REMARKS GEORGETOWN FAIR 52 36 54 E9 30.52S KINGSTREE FAIR 57 32 38 E9 30.48S ORANGEBURG CLEAR 61 30 31 E7 30.46S BARNWELL FAIR 64 36 34 E9 30.44S AIKEN FAIR 61 30 31 E7 30.46S MANNING FAIR 59 32 36 E3 30.47S COLUMBIA PTCLDY 62 25 24 E8 30.45S SUMTER CLEAR 60 25 26 E8 30.45S FLORENCE CLEAR 58 27 30 E9 30.49S MYRTLE BEACH CLEAR 52 32 46 E10 30.53S N MYRTLE BEACH CLEAR 51 34 52 E13G18 30.52S $$ GAZ063-065-086>088-099>101-113>116-118-119-134>141-150-240000- ...SOUTHEAST GEORGIA... CITY SKY/WX TMP DP RH WIND PRES REMARKS SAVANNAH ARPT PTCLDY 60 45 57 E15 30.46R HUNTER AAF CLEAR 59 50 73 E9 30.43R FORT STEWART CLEAR 62 44 53 E10 30.41R STATESBORO CLEAR 66 45 45 SE5 30.42R SYLVANIA CLEAR N/A N/A N/A SE7 30.43S CLAXTON CLOUDY 64 44 48 NE7 30.42S ...CSRA...CENTRAL AND FAR SOUTHEAST GEORGIA... CITY SKY/WX TMP DP RH WIND PRES REMARKS THOMSON PTCLDY 63 33 32 S8 30.46F AUGUSTA-BUSH PTCLDY 65 35 33 SE9 30.42S AUGUSTA-DANIEL CLEAR 64 31 28 E10 30.42F SWAINSBORO MOCLDY 66 45 45 E8 30.41S VIDALIA CLOUDY 66 46 48 E8 30.40R EASTMAN CLOUDY 67 38 34 E7 30.41R HAZLEHURST FAIR 66 51 58 E7 30.38S ALMA PTCLDY 64 50 60 E10G16 30.39R WAYCROSS CLOUDY 67 55 65 E13 30.39R JESUP FAIR 63 46 55 E9 30.42R BAXLEY MOCLDY 64 52 63 E7 30.39S BRUNSWICK CLOUDY 61 55 82 NE16G24 30.43R SAINT SIMONS CLOUDY 61 53 75 NE14 30.41S $$ SCZ027-028-034-036>038-045-046-048>050-GAZ119-141-240000- ...LAKE AND SUPPLEMENTAL COASTAL OBSERVATIONS... STATION/POSITION TIME TEMP WIND PRES WAVE SWELL AIR SEA DIR/SP/G HT/PER HT/PER/DIR (UTC) (F) (DEG/KT/KT) (MB) (FT/S) (FT/S/D) WINYAH BAY NOT AVBL LAKE MURRAY 2220 61 70/ 6/ 10 1030.5 ACE BASIN NERRS NOT AVBL FORT PULASKI 2248 57 61 60/ 18/ 22 1031.4R SAPELO ISLAND 2200 61 50/ 17 1030.0 $$ ANZ835-935-AMZ111-154-330-350-352-354-370-450-454-472-240000- ...C-MAN AND BUOY OBSERVATIONS... STATION/POSITION TIME TEMP WIND PRES WAVE SWELL AIR SEA DIR/SP/G HT/PER HT/PER/DIR (UTC) (F) (DEG/KT/KT) (MB) (FT/S) (FT/S/D) BUOY 41004 2150 60 71 40/ 23/ 27 1030.3 7/ 7 2/100/10 BUOY 41008 2150 60 62 50/ 21/ 27 1029.1 8/ 7 FOLLY BEACH CMAN 2300 55 50/ 22/ 25 1032.9R CAPERS NEARSHORE 2208 55 70/ 19/ 25 1032.1R FRIPP NEARSHORE 2208 56 59 60/ 21/ 27 1031.5R STATION/POSITION TIME TEMP WIND PRES WAVE SWELL AIR SEA DIR/SP/G HT/PER HT/PER/DIR (UTC) (F) (DEG/KT/KT) (MB) (FT/S) (FT/S/D) 5E ST. MARYS GA 2230 63 N/A 7/ 7 2/ 90/11 FRYING PAN BUOY 2250 54 65 30/ 17/ 23 1033.3R 7/ 8 3/100/ 8 BUOY 41025 2250 47 73 20/ 14/ 17 1035.0R 9/11 8/ 70/11 CAPE LOOKOUT NC 2300 45 20/ 11/ 13 1034.8R BUOY 41002 2250 61 72 40/ 17/ 25 1030.4R 7/11 5/ 20/11 BUOY 41010 NOT AVBL ST AUGUSTINE FL 2300 67 65 70/ 14/ 16 1028.9R $$

USA.gov is the U.S. government's official web portal to all federal, state and local government web resources and services.